Weather in Meiningen

Germany     50°34′17″N   10°24′56″E
temp.,
°C
wind,
m/s
gust,
m/s
humid.,
%
clouds,
%
prec.,
mm/h
press.,
hPa
HPBL,
m
10 april, sat
sat1023:00+4se119291 0.0 101511
02:00+4ese219198 0.1 101330
05:00+4sse2997100 2.8 1012297
08:00+6sw2799100 3.9 1013346
11:00+5nnw1296100 0.9 1015103
14:00+6s1292100 0.9 1015243
17:00+7s2596100 0.1 1015345
20:00+7se2397100 0.4 1014123
11 april, sun
sun1123:00+6se1196100 0.0 101328
02:00+6se229694 0.0 101277
05:00+6ese249658 0.0 1011117
08:00+6ese2394100 0.0 1011126
11:00+10sse2480100 0.0 1011437
14:00+15s4662100 0.0 10091417
17:00+15ssw5965100 0.2 10081425
20:00+9wnw3995100 6.8 1011423
12 april, mon
mon1223:00+8nw239475 0.8 1013239
02:00+4nnw3694100 1.2 1016352
05:00+2nnw3799100 2.0 1018419
08:00+1n4994100 3.9 1020709
11:00+2n51088100 1.8 1022891
14:00+3n5872100 2.1 10241248
17:00+4n4867100 0.0 10241625
20:00+3nnw1174100 0.1 102622
13 april, tue
tue1323:000nnw1181100 0.0 102812
02:000nnw1183100 0.0 102911
05:00−2nnw218847 0.0 102913
08:000nnw247945 0.0 1030185
11:00+4nnw455126 0.0 10301277
14:00+6nw3542100 0.1 10282363
17:00+6nnw464676 0.7 10272080
20:00+2n22745 0.8 102813
14 april, wed
wed1423:00−1nnw22879 0.0 103018
02:00−2nnw119226 0.0 103011
05:00−2nnw21945 0.0 103018
08:000nnw24847 0.0 1030281
11:00+4nnw455194 0.0 10301593
14:00+6n4444100 0.1 10282006
17:00+6n344591 0.2 10271762
20:00+2n227696 0.6 102828